Location: Unspecified
(0.0000°N, 0.0000°E)
Time: 23:16:50
(UTC+00:00)

Fermi - Visible Passes

Search period start: 26 February 2020 00:00
Search period end: 07 March 2020 00:00
Orbit: 523 x 541 km, 25.6° (Epoch: 25 February)

Date Brightness Start Highest point End Pass type
(mag) Time Alt. Az. Time Alt. Az. Time Alt. Az.
28 Feb 6.3 19:57:07 10° SSW 19:57:53 12° S 19:57:53 12° S visible
29 Feb 5.8 19:43:51 10° SSW 19:45:59 18° S 19:45:59 18° S visible
01 Mar 5.2 19:30:44 10° SSW 19:34:09 25° SSE 19:34:09 25° SSE visible
02 Mar 4.7 19:17:42 10° SW 19:21:26 32° SSE 19:22:23 29° SE visible
03 Mar 4.3 19:04:46 10° SW 19:08:41 43° SSE 19:10:39 25° E visible
04 Mar 6.4 05:19:59 10° N 05:21:01 11° NNE 05:22:02 10° NE visible
04 Mar 3.9 18:51:54 10° SW 18:55:57 59° SSE 18:58:58 17° ENE visible
04 Mar 6.9 20:33:44 10° W 20:34:11 12° WNW 20:34:11 12° WNW visible
05 Mar 6.2 05:06:09 10° N 05:08:21 14° NNE 05:10:31 10° ENE visible
05 Mar 3.7 18:39:06 10° WSW 18:43:13 81° SSE 18:47:18 10° ENE visible
05 Mar 6.6 20:21:26 10° WNW 20:22:32 14° WNW 20:22:32 14° WNW visible
06 Mar 6.0 04:53:31 13° N 04:55:39 18° NNE 04:58:29 10° ENE visible
06 Mar 6.4 20:09:20 10° WNW 20:10:53 14° NW 20:10:53 14° NW visible
